Погода в Коелге

Россия / Челябинская область     54°38′55″N   60°54′10″E
темп.,
°C
ветер,
м/с
пор.,
м/с
влажн.,
%
обл.,
%
осадки,
мм/ч
давл.,
гПа
погр.,
м
10 августа, ср
ср1023:00+18в22770 0.0 101817
02:00+17св11760 0.0 101911
05:00+15ссз22814 0.0 101914
08:00+19св23677 0.0 1020173
11:00+24в22505 0.0 1019857
14:00+26всв234497 0.0 10191952
17:00+26всв1243100 0.0 10181752
20:00+22юв3360100 0.0 101855
11 августа, чт
чт1123:00+21ююз236394 0.0 101956
02:00+17з22755 0.0 101919
05:00+16з23785 0.0 101823
08:00+21юз23655 0.0 1018167
11:00+26юз34471 0.0 1018957
14:00+29юз34375 0.0 10162497
17:00+26сз675273 0.0 1016610
20:00+20сз3582100 2.9 101784
12 августа, пт
пт1223:00+18сз41090100 2.9 1018228
02:00+16ссз51188100 0.0 1019333
05:00+12ссз499063 0.0 1020242
08:00+15ссз59750 0.0 1021470
11:00+20сз574821 0.0 10201262
14:00+22сз6739100 0.0 10192041
17:00+22сз673914 0.0 10182178
20:00+18зсз475950 0.0 1018140
13 августа, сб
сб1323:00+15з496664 0.0 1019169
02:00+14з410725 0.0 1018164
05:00+14з411744 0.0 1018192
08:00+17з611641 0.0 1017475
11:00+22зсз710505 0.0 10161422
14:00+24сз8104699 0.0 10162183
17:00+23сз711510 0.0 10161864
20:00+19ссз4861100 0.0 1016205
14 августа, вс
вс1423:00+15ссз36720 0.0 1018101
02:00+12сз46741 0.0 101990
05:00+11ссз34740 0.0 102048
08:00+15ссз46600 0.0 1021292
11:00+19с57430 0.0 10211526
14:00+21с46361 0.0 10201974
17:00+21с46330 0.0 10202184
20:00+17с33510 0.0 102131